TimeEDT,TemperatureF,Dew PointF,Humidity,Sea Level PressureIn,VisibilityMPH,Wind Direction,Wind SpeedMPH,Gust SpeedMPH,PrecipitationIn,Events,Conditions,WindDirDegrees,DateUTC
12:53 AM,70.0,69.1,97,29.99,10.0,NW,8.1,-,N/A,,Scattered Clouds,320,2011-11-01 04:53:00
1:53 AM,70.0,69.1,97,29.99,10.0,NNW,8.1,-,N/A,,Scattered Clouds,340,2011-11-01 05:53:00
2:53 AM,70.0,69.1,97,29.99,10.0,NW,6.9,-,0.00,,Mostly Cloudy,320,2011-11-01 06:53:00
3:53 AM,69.1,68.0,96,29.98,10.0,NNW,11.5,-,N/A,,Scattered Clouds,330,2011-11-01 07:53:00
4:19 AM,69.8,68.0,94,29.98,10.0,NNW,8.1,-,N/A,,Scattered Clouds,330,2011-11-01 08:19:00
4:49 AM,69.8,69.8,100,29.98,10.0,NNW,10.4,-,N/A,,Mostly Cloudy,330,2011-11-01 08:49:00
4:53 AM,69.1,69.1,100,29.98,10.0,NNW,11.5,-,N/A,,Mostly Cloudy,330,2011-11-01 08:53:00
5:00 AM,69.8,69.8,100,29.98,10.0,NNW,11.5,-,N/A,,Scattered Clouds,330,2011-11-01 09:00:00
5:53 AM,70.0,69.1,97,29.99,10.0,NNW,9.2,-,N/A,,Scattered Clouds,340,2011-11-01 09:53:00
6:53 AM,71.1,70.0,96,30.00,10.0,North,5.8,-,0.00,,Mostly Cloudy,350,2011-11-01 10:53:00
7:53 AM,72.0,69.1,91,30.01,10.0,North,9.2,-,0.00,,Mostly Cloudy,350,2011-11-01 11:53:00
8:53 AM,73.0,70.0,90,30.03,10.0,North,6.9,-,0.00,,Mostly Cloudy,350,2011-11-01 12:53:00
9:53 AM,78.1,71.1,79,30.04,10.0,NE,13.8,19.6,0.02,,Mostly Cloudy,40,2011-11-01 13:53:00
10:53 AM,79.0,70.0,74,30.06,10.0,NE,16.1,-,N/A,,Mostly Cloudy,40,2011-11-01 14:53:00
11:53 AM,81.0,69.1,67,30.06,10.0,NE,18.4,26.5,N/A,,Mostly Cloudy,40,2011-11-01 15:53:00
12:53 PM,81.0,69.1,67,30.05,10.0,NNE,20.7,28.8,N/A,,Mostly Cloudy,20,2011-11-01 16:53:00
1:53 PM,81.0,68.0,65,30.03,10.0,NNE,18.4,25.3,N/A,,Mostly Cloudy,30,2011-11-01 17:53:00
2:45 PM,80.6,68.0,65,30.02,10.0,NNE,19.6,29.9,N/A,,Mostly Cloudy,30,2011-11-01 18:45:00
2:53 PM,80.1,68.0,67,30.02,10.0,NNE,16.1,28.8,N/A,,Mostly Cloudy,30,2011-11-01 18:53:00
3:53 PM,79.0,68.0,69,30.02,10.0,NNE,20.7,27.6,N/A,,Mostly Cloudy,30,2011-11-01 19:53:00
4:53 PM,78.1,66.9,68,30.03,10.0,NNE,16.1,25.3,N/A,,Mostly Cloudy,20,2011-11-01 20:53:00
5:53 PM,75.9,68.0,76,30.04,10.0,NNE,12.7,24.2,N/A,,Mostly Cloudy,30,2011-11-01 21:53:00
6:53 PM,75.9,66.9,74,30.05,10.0,NNE,15.0,20.7,N/A,,Mostly Cloudy,20,2011-11-01 22:53:00
7:53 PM,75.9,66.9,74,30.06,10.0,NNE,16.1,24.2,N/A,,Mostly Cloudy,30,2011-11-01 23:53:00
8:03 PM,75.2,66.2,73,30.07,10.0,NNE,11.5,21.9,N/A,,Mostly Cloudy,20,2011-11-02 00:03:00
8:53 PM,75.0,66.0,73,30.08,10.0,NE,17.3,-,N/A,,Mostly Cloudy,40,2011-11-02 00:53:00
9:53 PM,75.0,66.9,76,30.09,10.0,NNE,11.5,24.2,N/A,,Mostly Cloudy,20,2011-11-02 01:53:00
10:53 PM,75.0,66.9,76,30.09,10.0,NE,17.3,26.5,0.00,Rain,Light Rain,40,2011-11-02 02:53:00
11:53 PM,73.9,68.0,82,30.09,10.0,NNE,15.0,23.0,0.00,,Mostly Cloudy,30,2011-11-02 03:53:00